Voltar ao catálogo

STARLINK-31996

AtivoComunicaçõesVLEO
NORAD 60100·PAYLOAD·🇺🇸 United States

Lançado Jun 23, 2024 de Cape Canaveral Space Force Station

Loading…

Próximas Passagens (próximas 24 horas)

TLE

AtualizadoSource: CelesTrak SupGP

Época: Sep 14, 2026, 15:11 UTC

1 60100C 24117K   26257.63312500 -.00028857  00000+0 -85290-3 0  2579
2 60100  53.1560 236.8286 0001300  89.5253 220.2514 15.34392928    13

Acompanhe STARLINK-31996 em tempo real com AllMySat

Download on the App Store